Regional Weather Roundup
Issued by NWS Goodland, KS

Home | Current Version | Previous Version | Text Only | Print | Product List | Glossary Off
Versions: 1 2 3 4 5 6 7 8 9 10 11 12 13 14 15 16 17 18 19 20 21 22 23 24 25 26 27 28 29 30 31 32 33 34 35 36 37 38 39 40 41 42 43 44 45 46 47 48 49 50

000
ASUS43 KGLD 171708
RWRGLD

GOODLAND FORECAST AREA HOURLY WEATHER ROUNDUP
NATIONAL WEATHER SERVICE GOODLAND KS
1000 AM MST WED JAN 17 2018

...OFFICIAL OBSERVATIONS...

CITY           SKY/WX    TMP DP  RH WIND       PRES   REMARKS
GOODLAND KS    SUNNY     34  15  46 NW8       30.31R
HILL CITY KS   CLOUDY    21   3  45 SW12      30.43F WCI   9
IMPERIAL NEB   SUNNY     22   8  55 CALM      30.33R
MCCOOK NEB     SUNNY     19   9  65 W5        30.38R
AKRON CO       SUNNY     26  11  52 W16       30.29R WCI  14
BURLINGTON CO  SUNNY     34  13  41 NW9       30.30R
LIMON CO       SUNNY     39  13  34 W7        30.29R
$$

...UNOFFICIAL OBSERVATIONS...

CITY           SKY/WX    TMP DP  RH WIND       PRES   REMARKS
COLBY KS       SUNNY     30  14  51 W5        30.35R
LENORA KS        N/A     20  32 100 SW7         N/A
NORTON KS      SUNNY     19   1  45 S8        30.40
SHARON SPRINGS   N/A     39  16  38 CALM        N/A
TRENTON NEB      N/A     21  32 100 CALM        N/A
KIT CARSON CO    N/A     30  14  51 MISG        N/A
YUMA CO        FAIR      32  12  43 W13       30.30R
$$



USA.gov is the U.S. government's official web portal to all federal, state and local government web resources and services.